This is the latest recevied weather packets stored in our database for station/object SV9TNF-51. If no packets are shown the sender has not sent any weather packets the latest 10 day(s).
| Time | Temp. | Humidity | Pressure | Rain* | Wind** | Luminosity | Snow |
|---|---|---|---|---|---|---|---|
| 1788477566 | 24.44° C | 56% | 1010.5 hPa | 0 mm | 4.92 m/s, 321° | - | - |
| 1788477266 | 24.44° C | 58% | 1010.5 hPa | 0 mm | 5.36 m/s, 331° | - | - |
| 1788476966 | 24.44° C | 58% | 1010.5 hPa | 0 mm | 4.47 m/s, 334° | - | - |
| 1788476666 | 24.44° C | 59% | 1010.5 hPa | 0 mm | 4.92 m/s, 335° | - | - |
| 1788476366 | 24.44° C | 58% | 1010.5 hPa | 0 mm | 3.13 m/s, 330° | - | - |
| 1788476066 | 24.44° C | 58% | 1010.5 hPa | 0 mm | 4.47 m/s, 317° | - | - |
| 1788475766 | 24.44° C | 55% | 1010.8 hPa | 0 mm | 4.92 m/s, 321° | - | - |
| 1788475466 | 25° C | 57% | 1010.8 hPa | 0 mm | 6.26 m/s, 333° | - | - |
| 1788475165 | 25° C | 62% | 1010.8 hPa | 0 mm | 3.13 m/s, 60° | - | - |
| 1788474866 | 25° C | 61% | 1010.8 hPa | 0 mm | 4.47 m/s, 47° | - | - |
| 1788474566 | 25° C | 57% | 1010.8 hPa | 0 mm | 3.13 m/s, 270° | - | - |
| 1788474266 | 24.44° C | 56% | 1010.8 hPa | 0 mm | 3.13 m/s, 153° | - | - |
| 1788473966 | 24.44° C | 54% | 1010.8 hPa | 0 mm | 4.47 m/s, 336° | - | - |
| 1788473665 | 24.44° C | 54% | 1010.8 hPa | 0 mm | 4.92 m/s, 355° | - | - |
| 1788473365 | 24.44° C | 53% | 1010.8 hPa | 0 mm | 3.13 m/s, 339° | - | - |
| 1788473065 | 24.44° C | 52% | 1010.8 hPa | 0 mm | 3.13 m/s, 159° | - | - |
| 1788472765 | 24.44° C | 52% | 1010.8 hPa | 0 mm | 4.02 m/s, 351° | - | - |
| 1788472465 | 24.44° C | 52% | 1010.8 hPa | 0 mm | 4.92 m/s, 336° | - | - |
| 1788472165 | 24.44° C | 51% | 1010.8 hPa | 0 mm | 4.92 m/s, 325° | - | - |
| 1788471865 | 24.44° C | 52% | 1010.8 hPa | 0 mm | 3.58 m/s, 322° | - | - |
| 1788471564 | 24.44° C | 51% | 1010.8 hPa | 0 mm | 4.47 m/s, 297° | - | - |
| 1788471265 | 24.44° C | 51% | 1010.5 hPa | 0 mm | 4.47 m/s, 317° | - | - |
| 1788470964 | 24.44° C | 53% | 1010.5 hPa | 0 mm | 7.15 m/s, 333° | - | - |
| 1788470664 | 25° C | 52% | 1010.5 hPa | 0 mm | 4.47 m/s, 340° | - | - |
| 1788470364 | 25° C | 52% | 1010.5 hPa | 0 mm | 1.79 m/s, 52° | - | - |
* Rain latest hour (hover to see other rain measurements)
** Current wind speed in m/s (hover to see current wind gust speed)